FENGYUN 1C DEB

Satellite information

Favourite Embed

Satellite Type and Status

DEBRISIN ORBIT

Key statistics

Satellite FENGYUN 1C DEB at a glance.

Uptime

9715

Days in orbit

Revolutions

≈ 14.8

Per day

Orbit

SSO

Sun Synchronous Orbit

Inclination

99.1

Latest

Satellite identification and parameters

Extended collection of information and parameters for FENGYUN 1C DEB.

Object identification

Identified? True

Debris? True

Object name: FENGYUN 1C DEB

International designator: 1999-025EPA

Object number (NORAD): 37925

Object ID (CCSDS): 37925

Country: PEOPLES REPUBLIC OF CHINA (PRC)

Current information (Y/N): Y

RCS size: SMALL

Orbital parameters

Period: 97.307 minutes

Inclination: 99.0872 deg

SMA: 7007.909 km

Apoapsis: 670.309 km

Periapsis: 589.239 km

RAAN: 205.2959 deg

Eccentricy: 0.0057842

Argument of periapsis: 11.9768 deg

Mean anomaly: 348.28 deg

Mean motion: 14.79858027 rev/day

Mean motion (dot): 0.00017399 rev/day2

B* drag term: 0.0022468503 1/REarth

Two-line elements (TLE)

Creation date: Dec. 4, 2025, 2:28 a.m.

Reference frame: TEME

Reference center: EARTH

Epoch: Dec. 3, 2025, 8:51 a.m. UTC

TLE line 0: 0 FENGYUN 1C DEB

TLE line 1: 1 37925U 99025EPA 25337.36885353 .00017399 00000-0 22469-2 0 9996

TLE line 2: 2 37925 99.0872 205.2959 0057842 11.9768 348.2800 14.79858027655443

Live tracking on map

Real-time ground track for satellite FENGYUN 1C DEB.

In-orbit conjunctions

A list of the most updated potential collisions computed for object FENGYUN 1C DEB.

Target Orbit TCA Probability of collision Miss distance Type
GP-B LEO 2025-11-27 23:29:07 0.0004349444 222.0 (m) PAYLOAD
CZ-6A DEB LEO 2024-12-01 13:33:08 0.0001133621 885.0 (m) DEBRIS
CZ-6A DEB LEO 2024-11-23 08:26:43 0.0001330979 895.0 (m) DEBRIS
COSMOS 2251 DEB LEO 2024-09-24 17:58:05 0.003838594 107.0 (m) DEBRIS

Associated space launch

Chinese polar orbiting meteorological satellite

FENGYUN 1C DEB was lifted into orbit during the mission ‘Long March 4B | Feng Yun 1C’, on board a Long March 4B space rocket.

The launch took place on May 10, 1999, 1:33 a.m. from Launch Complex 7.

For more information about the launch, click the button.

Launch to space Long March 4B | Feng Yun 1C
Long March 4B | Feng Yun 1C

Agency: N/A

Status: Launch Successful

Launch date: May 10, 1999, 1:33 a.m. UTC

Rocket: Long March 4B

Launch pad: Launch Complex 7

Location: Taiyuan Satellite Launch Center, People's Republic of China

...

Latest news about this satellite

There are no fresh news available about this satellite. Check back as we update our databases every day.


Newsletter sign-up

Weekly statistics, charts and insights to help you stay on top of the space industry.